SPACEMOBILE-003

Last updated on Tue Sep 22 2026 00:02:20 GMT+0000 (Coordinated Universal Time)

1 61045U 24163A 26264.30527151 .00001145 00000+0 66643-4 0 9995 2 61045 52.9687 227.5045 0006864 52.2386 307.9229 15.20424912112398
UTC large
Height (km)
Speed (km/s)
/
Latitude / Longitude
Inclination (degrees)
Orbital Period (minutes)
Azimuth
Elevation
Range (km)
Doppler Factor

Next 0 passes for location: London (51.5072 / 0.1276)

No passes found over London.
SPACEMOBILE-003